Temperature
21 22 22 22 22 22 21 21 21 21 20 20 20 20 20 20 20 20 20 19 19 19 19 19 19 19 19 19 19 19 18 18 18 18 18 18 18 17 17 17 18 18 18
23 22 22 22 22 22 21 21 21 20 20 20 20 20 20 20 20 20 19 19 19 19 19 19 19 19 19 19 19 19 19 18 18 18 18 18 18 18 17 18 18 18 18
23 22 22 22 22 22 21 21 20 20 20 20 20 20 20 20 20 20 20 19 19 19 19 19 19 19 19 19 19 19 19 18 18 18 18 18 18 18 18 18 18 18 18
23 22 22 22 22 21 21 21 20 20 20 20 20 20 20 20 20 20 20 20 20 20 20 20 20 20 20 19 19 19 19 18 18 18 18 18 18 18 18 18 18 18 18
23 23 22 22 22 21 21 21 20 20 20 20 20 20 20 20 20 20 20 20 20 20 20 20 20 20 20 20 19 19 19 18 18 18 18 18 18 18 18 18 18 18 18
23 22 22 22 22 22 21 21 21 20 20 20 20 20 20 20 20 20 20 20 20 20 20 20 20 20 20 20 20 19 19 18 18 18 18 18 18 18 19 19 18 18 18
23 22 22 22 22 22 21 21 21 21 20 20 20 20 20 20 20 20 20 20 20 20 20 20 20 20 20 20 20 19 19 18 18 18 18 18 18 18 19 19 19 18 18
23 22 22 22 22 22 21 21 21 21 20 20 20 20 20 20 20 20 20 20 20 20 20 20 20 20 20 20 20 19 19 18 18 18 18 18 18 18 19 19 19 19 18
23 23 22 22 22 22 21 21 21 21 21 20 20 20 20 20 20 20 20 20 20 20 20 20 20 20 20 20 20 20 19 19 18 18 18 18 18 18 18 19 19 19 19
23 23 22 22 22 22 21 21 21 21 21 20 20 20 20 20 20 20 19 19 19 19 19 20 20 20 20 20 20 20 20 19 19 18 18 18 18 18 18 19 19 19 19
22 22 22 22 22 21 21 21 20 20 20 20 20 20 20 20 20 19 19 19 19 19 19 19 19 19 19 19 20 20 19 19 19 19 18 18 18 18 18 18 19 19 19
21 21 21 21 21 21 20 20 20 20 20 20 20 20 19 19 19 19 19 18 18 18 18 18 18 18 19 19 19 19 19 19 19 19 19 18 18 18 18 18 18 19 19
21 21 21 21 20 20 20 19 19 19 19 19 19 19 19 19 19 18 18 18 18 18 18 18 18 18 18 18 19 19 19 19 19 19 19 19 18 18 18 18 18 18 19
21 20 20 20 20 19 19 19 19 19 19 19 19 19 19 18 18 18 18 18 18 18 18 17 17 17 17 17 18 18 18 18 19 19 19 19 19 18 18 18 18 18 18
21 20 20 20 19 19 19 19 19 19 19 19 18 18 18 18 18 18 18 18 18 18 17 17 17 17 17 17 17 17 18 18 18 18 18 18 18 18 18 18 18 18 18
21 20 20 19 19 19 19 19 19 19 19 18 18 18 18 18 18 18 18 18 17 17 17 17 17 17 17 17 17 17 17 17 18 18 18 18 18 18 18 18 18 18 18
20 20 19 19 19 19 19 18 18 18 18 18 18 18 18 18 18 18 17 17 17 17 17 17 17 16 16 16 16 17 17 17 17 17 17 17 18 18 18 18 18 17 17
19 19 19 18 18 18 18 18 18 18 18 18 17 17 17 17 17 17 17 17 17 17 17 17 16 16 16 16 16 16 16 16 17 17 17 17 17 17 17 17 17 17 18
18 18 18 18 18 18 18 18 18 17 17 17 17 17 17 17 17 17 17 17 17 17 16 16 16 16 16 16 16 16 16 16 16 16 16 16 17 17 17 17 17 17 17
18 18 18 18 18 18 18 17 17 17 17 17 17 17 16 16 16 16 16 16 16 16 16 16 16 16 15 15 15 15 16 16 16 16 16 16 16 17 17 17 17 17 17
18 18 18 18 18 18 18 17 17 17 17 16 16 16 16 16 15 15 15 15 15 15 15 15 15 15 15 15 15 15 16 16 16 16 16 16 16 16 17 17 17 17 17
18 18 18 18 18 18 17 17 17 16 16 16 16 15 15 15 14 14 14 14 15 15 15 15 14 14 14 14 14 14 15 15 16 16 16 16 16 17 17 17 17 17 17
19 18 18 18 18 17 17 17 16 16 16 15 15 15 15 14 14 14 14 14 14 14 14 14 14 14 14 14 14 14 14 15 15 16 16 16 16 17 17 17 17 17 17
19 18 18 17 17 17 16 16 16 15 15 14 14 14 14 14 14 14 13 13 14 14 14 14 14 14 14 14 14 14 14 14 14 15 16 16 16 17 17 17 17 17 17
19 18 17 17 16 16 15 15 15 14 14 13 13 13 13 13 13 13 13 13 13 13 13 13 13 13 13 13 13 13 14 14 14 14 14 16 16 17 17 17 17 17 17
18 18 17 16 16 15 15 14 14 14 13 13 12 12 12 12 12 12 12 12 12 12 12 13 13 13 13 13 13 13 13 13 13 14 14 15 16 16 16 17 17 17 17
Wind_Speed
11 13 21 21 22 22 21 20 20 19 19 19 19 19 19 19 20 19 19 18 17 16 15 14 13 13 14 14 15 16 16 17 18 19 18 17 16 16 18 18 18 17 20
15 18 21 22 22 22 22 21 20 19 19 18 18 18 18 18 17 17 17 16 16 15 14 13 13 13 13 13 14 14 15 15 16 17 17 16 15 16 17 17 17 16 19
19 18 20 21 22 22 22 21 20 19 18 18 17 17 16 16 16 16 15 15 14 14 14 13 12 12 12 12 12 13 13 13 14 15 15 13 14 16 18 17 18 18 18
18 17 19 21 21 22 21 21 20 19 18 17 17 16 16 15 15 15 14 14 13 13 13 12 12 11 11 10 10 11 11 11 12 12 11 11 13 17 18 18 18 17 17
14 16 20 22 21 21 21 20 19 19 18 17 16 16 15 15 14 13 13 13 13 13 12 12 11 11 10 10 9 8 8 8 8 8 8 10 13 17 18 17 17 17 17
13 15 19 21 20 20 20 19 19 18 17 17 16 16 15 15 14 13 12 12 12 12 12 11 11 10 10 9 8 8 7 6 6 4 7 12 14 17 18 17 17 16 16
13 13 18 20 20 19 19 18 18 17 17 16 16 15 15 14 14 13 12 12 12 12 11 11 10 10 10 9 8 8 7 6 5 4 7 13 15 19 19 18 17 17 16
15 12 16 19 19 18 18 17 17 16 15 15 15 14 14 14 14 13 13 12 12 12 12 12 11 11 10 10 9 9 8 7 5 4 7 13 17 20 20 20 18 17 16
14 11 11 15 16 17 17 16 16 15 15 14 14 14 14 13 13 13 13 13 13 13 13 13 13 12 12 11 11 10 10 9 7 4 6 11 18 21 21 21 20 19 18
11 11 9 11 12 13 14 16 15 15 14 14 13 13 13 13 13 13 13 14 14 14 15 14 14 14 14 13 13 12 12 11 9 7 7 11 18 22 22 22 22 21 20
10 8 8 8 9 11 12 14 14 14 14 14 13 13 13 11 11 12 13 14 15 16 16 16 16 16 15 15 15 15 13 11 10 9 9 13 19 23 24 24 23 23 22
11 10 9 8 8 10 11 11 10 11 11 11 11 11 10 10 11 12 13 16 18 18 18 18 18 17 16 14 15 16 13 13 12 11 12 15 20 25 25 25 25 24 24
11 11 10 9 7 7 5 7 7 7 8 9 10 11 11 10 9 10 8 11 14 16 15 16 17 15 14 12 11 12 12 12 12 13 14 15 19 24 26 26 25 25 25
9 9 9 8 6 5 5 5 5 4 5 6 9 11 9 5 4 4 4 6 7 8 8 10 9 12 13 14 13 12 13 12 12 13 15 17 18 24 27 26 25 24 24
8 7 7 7 7 5 4 3 3 2 3 4 5 7 8 4 4 3 2 3 3 4 5 5 7 7 9 11 12 12 11 13 14 14 14 17 19 23 27 27 26 25 26
8 7 7 7 6 5 4 3 2 2 3 3 3 3 5 4 2 2 1 1 2 3 4 5 6 7 7 7 9 10 10 11 13 14 14 16 18 20 24 26 27 27 27
6 6 5 5 5 5 3 2 2 2 3 2 2 3 4 4 3 2 1 1 2 4 5 4 5 5 6 7 9 10 8 9 10 12 15 15 15 19 23 25 26 27 27
6 6 5 6 5 5 3 2 2 2 2 1 2 3 3 4 3 2 1 1 3 3 2 3 3 4 5 6 7 8 8 7 9 11 13 14 15 16 21 26 27 28 28
6 6 5 5 5 4 3 3 3 3 3 2 1 1 2 3 3 2 1 1 2 2 2 3 3 3 5 5 6 7 8 8 9 11 11 12 16 18 18 23 29 29 29
5 5 6 5 5 4 4 4 4 4 3 3 1 1 2 2 2 2 1 2 1 1 3 3 4 4 4 5 7 7 6 7 7 9 11 10 13 18 20 19 21 24 29
5 5 5 5 4 4 3 3 3 3 3 3 3 3 2 2 2 1 1 2 2 2 4 4 3 4 4 3 3 4 5 7 9 9 9 9 11 14 16 18 17 18 19
5 5 5 5 4 4 2 2 1 0 1 1 2 4 5 4 4 3 3 3 3 3 4 4 3 3 3 3 2 3 3 4 5 9 8 9 10 9 12 15 15 17 17
7 7 7 7 5 4 3 2 2 3 3 3 4 4 4 5 6 5 5 5 5 4 5 5 4 4 4 3 3 3 3 3 3 3 6 8 8 8 10 9 12 16 18
8 7 7 6 5 4 4 3 2 1 1 3 3 3 6 6 7 6 5 5 5 5 5 5 4 3 3 4 3 3 4 3 3 3 3 4 6 7 8 10 11 12 16
6 5 5 5 4 3 3 4 3 2 3 3 3 5 5 6 6 6 5 4 4 4 5 5 4 4 3 3 3 3 3 3 3 3 4 3 2 3 5 7 7 8 12
4 4 5 5 4 3 4 3 4 4 4 4 5 5 5 5 5 6 5 4 4 4 5 5 5 4 4 4 4 4 3 3 2 2 3 3 3 3 3 5 6 8 8
Wind_Direction
151 156 148 142 137 133 130 127 123 120 118 116 115 115 115 115 117 119 122 124 125 126 125 123 120 117 116 115 116 117 118 119 120 119 117 114 115 120 121 119 116 116 117
149 153 149 144 140 137 135 133 130 128 125 124 123 122 121 122 122 124 125 126 128 130 130 129 126 124 123 122 123 124 124 124 124 122 118 114 114 122 125 121 121 124 122
143 147 147 144 142 140 139 138 136 135 133 132 131 130 130 131 131 132 133 134 135 136 135 134 132 131 130 130 130 130 130 129 127 125 119 114 116 125 128 126 127 128 127
139 141 145 144 142 142 142 142 141 140 139 139 140 140 141 141 142 142 143 144 143 142 142 141 141 140 140 140 140 140 139 138 137 134 131 131 125 127 130 131 132 133 131
133 137 145 144 143 143 144 145 147 147 147 147 148 149 150 150 151 152 153 154 154 151 151 151 150 150 152 152 153 153 151 152 156 150 152 153 138 138 137 138 138 138 138
130 135 145 144 144 145 146 148 151 152 153 154 156 158 158 160 161 162 164 165 165 163 162 162 162 162 165 168 170 172 173 175 177 172 156 157 153 150 147 146 146 145 145
132 136 144 144 144 146 148 152 155 157 159 159 161 164 166 168 169 172 175 176 177 175 174 174 175 177 180 185 189 193 197 201 203 190 170 169 169 162 156 154 154 153 152
138 137 144 147 148 149 151 154 157 159 162 164 166 170 173 175 177 180 183 185 187 186 186 186 188 190 195 200 206 213 218 221 218 199 190 183 181 171 166 162 161 162 161
141 141 144 151 152 154 155 158 160 163 165 168 172 176 179 183 185 189 194 196 197 197 198 198 200 201 204 210 217 225 231 234 236 233 212 190 189 180 175 170 169 169 170
142 148 147 150 153 156 162 165 168 170 173 176 180 183 188 192 196 200 204 206 207 208 208 209 210 211 213 217 223 230 238 244 243 237 228 205 198 188 183 179 177 177 177
147 154 153 154 159 163 167 175 177 179 183 186 190 195 197 202 207 212 215 216 219 219 218 218 218 218 219 223 227 232 239 243 245 240 230 219 208 198 191 187 184 183 183
160 167 169 168 172 174 180 179 183 188 192 194 198 204 205 208 215 223 227 229 229 229 228 226 225 224 225 226 230 234 235 237 243 245 237 228 216 207 199 193 191 190 189
162 168 170 172 176 181 182 166 184 197 198 205 209 212 214 216 224 235 237 242 238 236 233 233 231 229 226 222 223 228 231 234 238 243 243 234 221 211 205 200 197 196 194
145 150 155 158 148 157 149 156 171 189 192 201 216 219 212 212 217 224 228 236 231 228 225 227 229 230 230 228 224 227 231 231 233 237 242 243 232 214 207 204 202 202 202
106 114 125 120 123 126 124 136 129 145 158 180 200 207 199 191 209 208 224 238 233 218 219 227 228 229 231 230 230 230 230 230 230 231 237 241 235 218 210 208 206 210 210
88 92 102 103 108 108 110 121 123 115 121 128 146 182 177 173 180 198 222 226 244 235 229 225 229 234 235 230 234 235 233 232 230 230 233 235 231 225 216 212 211 214 215
87 85 94 95 83 86 78 71 83 89 101 98 116 133 135 143 148 164 211 247 242 241 239 238 235 234 240 240 240 240 238 233 230 231 232 229 228 229 222 215 213 216 217
85 79 76 87 71 61 54 45 55 57 68 80 120 131 132 140 145 150 187 248 263 259 249 249 241 238 242 243 244 245 241 233 232 230 230 228 228 229 227 220 216 219 220
95 93 82 79 73 61 51 43 43 38 26 13 57 167 172 154 146 151 201 255 281 283 271 271 267 250 252 252 253 247 239 233 232 233 226 224 225 226 224 222 220 221 222
108 99 89 77 70 63 48 42 35 27 12 3 343 264 212 189 179 171 198 252 263 279 283 278 277 267 257 256 266 262 248 240 233 231 228 224 224 226 224 221 221 227 228
117 111 108 100 83 70 54 46 36 6 351 352 345 339 318 293 272 228 239 254 250 249 259 270 272 278 271 258 266 278 266 246 239 236 229 225 223 225 222 219 217 221 226
156 154 148 139 129 115 108 109 129 235 311 331 354 354 350 330 307 279 249 248 245 244 257 259 255 269 269 244 233 267 284 280 248 235 226 225 227 223 221 219 216 216 218
186 183 172 169 157 144 130 97 48 32 12 2 350 335 326 318 303 287 268 254 245 229 239 247 240 242 266 268 226 226 246 258 284 255 229 229 227 221 221 214 213 215 214
203 188 174 169 159 152 132 116 114 110 281 272 276 292 307 310 305 299 285 265 249 234 231 241 234 229 240 268 268 241 237 250 269 302 283 238 230 224 220 221 216 213 212
198 174 166 155 157 162 155 153 155 201 233 261 284 302 307 309 307 307 302 286 267 250 240 237 239 236 231 241 247 254 255 253 240 254 289 300 283 242 225 218 209 207 205
125 132 144 151 174 185 182 186 194 218 243 269 291 298 302 303 307 309 305 302 286 270 257 247 237 237 241 244 246 238 232 242 240 235 258 278 279 274 250 227 210 204 196
Height
1517 1521 1524 1526 1528 1530 1532 1534 1536 1537 1539 1540 1541 1543 1544 1545 1547 1548 1549 1550 1551 1552 1552 1553 1553 1554 1554 1554 1555 1555 1555 1556 1556 1556 1557 1557 1558 1559 1559 1560 1561 1561 1563
1515 1520 1524 1526 1528 1531 1533 1535 1536 1538 1539 1541 1542 1543 1545 1546 1547 1548 1549 1550 1551 1552 1553 1553 1554 1554 1555 1555 1556 1556 1556 1557 1557 1558 1559 1559 1560 1560 1561 1561 1562 1563 1564
1516 1520 1524 1527 1529 1531 1533 1535 1537 1538 1540 1541 1542 1544 1545 1546 1547 1548 1550 1551 1551 1552 1553 1554 1555 1555 1556 1556 1557 1557 1558 1558 1559 1559 1560 1561 1561 1562 1562 1563 1564 1565 1566
1517 1521 1524 1527 1530 1532 1534 1535 1537 1539 1540 1541 1543 1544 1545 1547 1548 1549 1550 1551 1551 1552 1553 1554 1555 1556 1556 1557 1558 1558 1559 1560 1560 1561 1561 1562 1563 1563 1564 1564 1565 1566 1567
1519 1522 1525 1528 1530 1532 1534 1536 1537 1539 1540 1541 1543 1544 1545 1547 1548 1549 1550 1551 1551 1552 1553 1554 1555 1556 1557 1558 1558 1559 1560 1560 1561 1561 1562 1563 1564 1564 1565 1565 1566 1567 1568
1519 1523 1525 1528 1530 1532 1534 1536 1537 1539 1540 1541 1543 1544 1545 1546 1548 1549 1550 1550 1551 1552 1553 1554 1555 1556 1557 1558 1559 1560 1560 1561 1561 1562 1562 1563 1564 1565 1566 1566 1567 1568 1569
1520 1523 1526 1529 1531 1533 1535 1536 1538 1539 1540 1541 1542 1544 1545 1546 1547 1548 1549 1550 1551 1552 1553 1554 1555 1556 1557 1558 1559 1560 1561 1561 1562 1562 1563 1564 1565 1566 1566 1567 1568 1569 1570
1522 1524 1527 1529 1531 1533 1535 1536 1538 1539 1540 1541 1542 1543 1544 1545 1547 1548 1549 1550 1551 1551 1553 1554 1555 1556 1556 1557 1559 1560 1560 1561 1562 1562 1563 1563 1565 1566 1567 1567 1568 1569 1570
1525 1526 1528 1530 1532 1534 1535 1536 1538 1538 1539 1541 1542 1543 1544 1545 1546 1547 1548 1549 1550 1551 1552 1553 1553 1554 1556 1557 1558 1559 1560 1560 1561 1561 1562 1563 1564 1565 1566 1567 1568 1569 1570
1526 1528 1529 1531 1533 1534 1535 1536 1537 1538 1539 1540 1541 1542 1543 1544 1545 1546 1547 1548 1549 1549 1550 1551 1552 1553 1554 1555 1556 1557 1558 1559 1560 1560 1561 1561 1563 1564 1565 1566 1567 1568 1569
1527 1529 1530 1532 1533 1534 1536 1537 1537 1538 1539 1540 1540 1541 1542 1543 1544 1545 1545 1546 1547 1548 1548 1549 1550 1551 1552 1553 1554 1555 1555 1556 1558 1558 1559 1560 1561 1562 1563 1565 1566 1567 1568
1527 1529 1531 1532 1534 1535 1536 1536 1537 1538 1538 1539 1540 1540 1541 1542 1542 1543 1544 1544 1545 1545 1546 1547 1548 1548 1549 1549 1550 1551 1552 1553 1554 1555 1556 1557 1558 1559 1560 1562 1564 1565 1566
1527 1529 1530 1532 1533 1534 1535 1536 1537 1537 1538 1538 1539 1539 1540 1540 1541 1541 1542 1542 1542 1542 1543 1543 1544 1544 1545 1545 1546 1547 1548 1549 1550 1551 1552 1554 1555 1556 1557 1559 1561 1563 1564
1526 1528 1529 1531 1532 1533 1534 1535 1535 1536 1536 1536 1537 1537 1537 1538 1538 1539 1539 1539 1539 1539 1538 1539 1539 1539 1540 1540 1541 1542 1543 1544 1545 1546 1548 1549 1550 1551 1552 1554 1556 1559 1561
1526 1528 1529 1530 1531 1532 1533 1533 1534 1534 1534 1535 1535 1535 1535 1535 1535 1535 1535 1536 1535 1535 1534 1534 1534 1534 1535 1534 1535 1536 1537 1538 1539 1541 1542 1544 1545 1546 1548 1549 1552 1554 1556
1527 1528 1529 1530 1531 1531 1532 1532 1533 1533 1532 1532 1533 1533 1533 1532 1532 1532 1532 1531 1531 1530 1530 1529 1529 1529 1529 1529 1529 1529 1531 1532 1534 1535 1536 1538 1539 1540 1542 1544 1546 1549 1552
1527 1528 1529 1529 1530 1529 1530 1530 1530 1530 1531 1530 1530 1530 1529 1529 1529 1528 1528 1527 1527 1526 1525 1524 1523 1523 1523 1523 1523 1523 1524 1526 1527 1528 1530 1532 1533 1535 1536 1538 1540 1543 1546
1527 1528 1528 1529 1528 1528 1528 1528 1528 1528 1528 1528 1528 1528 1527 1527 1526 1525 1524 1524 1523 1522 1520 1519 1518 1517 1516 1516 1516 1516 1517 1519 1520 1522 1523 1525 1526 1528 1530 1532 1534 1537 1540
1528 1528 1528 1528 1528 1528 1527 1527 1527 1527 1527 1526 1526 1526 1525 1524 1523 1523 1522 1520 1519 1518 1516 1515 1513 1512 1511 1510 1510 1510 1510 1511 1512 1514 1515 1517 1519 1521 1523 1525 1528 1531 1534
1528 1528 1528 1527 1527 1527 1527 1527 1526 1526 1526 1525 1524 1524 1523 1522 1521 1520 1518 1517 1515 1514 1512 1511 1509 1507 1506 1505 1504 1503 1503 1504 1504 1505 1507 1509 1511 1514 1516 1519 1522 1524 1527
1529 1528 1528 1528 1528 1527 1527 1526 1526 1525 1524 1524 1522 1521 1520 1519 1518 1516 1515 1513 1512 1510 1508 1507 1505 1503 1502 1501 1499 1497 1497 1497 1497 1497 1499 1501 1504 1506 1509 1512 1515 1518 1521
1529 1528 1528 1527 1527 1527 1526 1525 1524 1523 1522 1521 1519 1518 1517 1515 1514 1512 1511 1509 1508 1506 1505 1503 1501 1499 1498 1498 1496 1495 1493 1492 1490 1491 1492 1494 1497 1500 1502 1505 1508 1511 1514
1527 1527 1526 1526 1525 1524 1524 1523 1522 1521 1519 1518 1516 1514 1513 1511 1509 1508 1506 1505 1504 1502 1501 1500 1498 1496 1495 1494 1493 1493 1491 1488 1486 1486 1487 1488 1490 1492 1495 1499 1501 1505 1508
1525 1524 1524 1523 1523 1522 1521 1520 1518 1517 1515 1513 1511 1509 1507 1506 1504 1502 1501 1500 1499 1498 1497 1496 1495 1493 1491 1490 1489 1489 1489 1487 1486 1483 1483 1484 1485 1486 1489 1492 1495 1499 1503
1523 1523 1522 1521 1520 1519 1518 1516 1515 1512 1510 1508 1506 1504 1502 1500 1499 1497 1496 1495 1493 1493 1492 1492 1491 1490 1488 1487 1486 1486 1485 1484 1483 1482 1480 1480 1481 1482 1484 1487 1490 1493 1497
1522 1521 1520 1519 1518 1516 1515 1513 1511 1509 1506 1504 1501 1499 1497 1495 1494 1492 1491 1490 1489 1488 1487 1487 1486 1486 1485 1484 1483 1482 1481 1481 1480 1480 1479 1478 1478 1479 1480 1483 1485 1489 1493